Weather History for Skagway, AK

Change the Weather History Date:

Wednesday, November 13, 2013

  Actual Average Record
Temperature  
Mean Temperature 32 °F -  
Max Temperature 35 °F 37 °F 48 °F (2010)
Min Temperature 30 °F 30 °F 4 °F (1989)
Degree Days  
Heating Degree Days 32    
Moisture  
Dew Point 22 °F    
Average Humidity 67    
Maximum Humidity 78    
Minimum Humidity 52    
Precipitation  
Precipitation 0.00 in - - ()
Sea Level Pressure  
Sea Level Pressure 30.18 in    
Wind  
Wind Speed 3 mph (NNE)    
Max Wind Speed 16 mph    
Max Gust Speed 20 mph    
Visibility 9 miles    
Events Snow    
Averages and records for this station are not official NWS values.
T = Trace of Precipitation, MM = Missing Value Source: NWS Daily Summary

Daily Weather History Graph

Daily Weather History Graph

Search for Another Location

Airport:

Trip Planner

Search our weather history database for the weather conditions in past years. The results will help you decide how hot, cold, wet, or windy it might be!

Date:

Astronomy

Nov. 13, 2013 Rise Set
Actual Time 7:52 AM AKST 3:38 PM AKST
Civil Twilight 7:04 AM AKST 4:25 PM AKST
Nautical Twilight 6:14 AM AKST 5:16 PM AKST
Astronomical Twilight 5:25 AM AKST 6:04 PM AKST
Moon 2:17 PM AKST (11/13) 2:58 AM AKST (11/13)
Length of Visible Light 9h 21m
Length of Day
7h 46m
Waxing Gibbous, 86% of the Moon is Illuminated
Nov 13
Waxing Gibbous
Nov 17
Full
Nov 25
Last Quarter
Dec 2
New
Dec 9
First Quarter

Hourly Weather History & Observations

Time (AKST) Temp. Windchill Dew Point Humidity Pressure Visibility Wind Dir Wind Speed Gust Speed Precip Events Conditions
12:53 AM 33.1 °F 26.1 °F 21.0 °F 61% 30.12 in 6.0 mi NNE 8.1 mph 19.6 mph 0.00 in Snow Light Snow
1:53 AM 34.0 °F 29.8 °F 19.9 °F 56% 30.13 in 10.0 mi North 4.6 mph - 0.00 in   Overcast
2:56 AM 30.2 °F 26.7 °F 23.0 °F 75% 30.16 in 1.8 mi North 3.5 mph - 0.00 in Snow Light Snow
3:06 AM 30.2 °F - 23.0 °F 75% 30.16 in 1.0 mi Calm Calm - 0.00 in Snow Light Snow
3:15 AM 30.2 °F - 23.0 °F 75% 30.16 in 2.0 mi Calm Calm - 0.00 in Snow Light Snow
3:24 AM 30.2 °F - 23.0 °F 75% 30.16 in 5.0 mi Calm Calm - 0.00 in Snow Light Snow
3:53 AM 30.9 °F - 23.0 °F 72% 30.16 in 4.0 mi Calm Calm - 0.00 in Snow Light Snow
4:53 AM 30.9 °F - 23.0 °F 72% 30.14 in 10.0 mi Calm Calm - 0.00 in   Overcast
5:53 AM 32.0 °F - 21.0 °F 64% 30.15 in 10.0 mi Calm Calm - N/A   Overcast
6:53 AM 32.0 °F - 19.9 °F 61% 30.16 in 10.0 mi Calm Calm - N/A   Overcast
7:53 AM 32.0 °F 27.5 °F 19.9 °F 61% 30.16 in 10.0 mi Variable 4.6 mph - N/A   Overcast
8:53 AM 32.0 °F 28.7 °F 21.0 °F 64% 30.17 in 10.0 mi ENE 3.5 mph - N/A   Overcast
9:53 AM 32.0 °F 28.7 °F 19.0 °F 59% 30.18 in 10.0 mi NNE 3.5 mph - N/A   Overcast
10:53 AM 34.0 °F 29.8 °F 18.0 °F 52% 30.18 in 10.0 mi Variable 4.6 mph - N/A   Mostly Cloudy
11:53 AM 34.0 °F - 19.9 °F 56% 30.18 in 10.0 mi Calm Calm - N/A   Mostly Cloudy
12:53 PM 34.0 °F - 21.0 °F 59% 30.19 in 10.0 mi Calm Calm - N/A   Scattered Clouds
1:53 PM 34.0 °F - 19.9 °F 56% 30.19 in 10.0 mi Calm Calm - N/A   Mostly Cloudy
2:53 PM 34.0 °F - 21.9 °F 61% 30.20 in 10.0 mi Calm Calm - N/A   Overcast
3:53 PM 33.1 °F - 21.9 °F 64% 30.21 in 10.0 mi Calm Calm - N/A   Overcast
4:53 PM 33.1 °F - 21.9 °F 64% 30.21 in 10.0 mi Calm Calm - N/A   Overcast
5:53 PM 32.0 °F - 23.0 °F 69% 30.21 in 10.0 mi Calm Calm - N/A   Overcast
6:01 PM 32.0 °F - 23.0 °F 69% 30.22 in 10.0 mi Calm Calm - N/A   Overcast
6:53 PM 32.0 °F - 24.1 °F 73% 30.22 in 10.0 mi Calm Calm - N/A   Overcast
7:07 PM 33.8 °F - 24.8 °F 70% 30.21 in 10.0 mi Calm Calm - N/A   Overcast
7:53 PM 32.0 °F 28.7 °F 25.0 °F 75% 30.22 in 10.0 mi NNE 3.5 mph - N/A   Mostly Cloudy
8:53 PM 32.0 °F - 25.0 °F 75% 30.21 in 10.0 mi Calm Calm - N/A   Overcast
9:53 PM 33.1 °F 30.0 °F 25.0 °F 72% 30.21 in 10.0 mi NE 3.5 mph - N/A   Overcast
10:53 PM 35.1 °F 32.2 °F 27.0 °F 72% 30.21 in 10.0 mi NE 3.5 mph - N/A   Overcast
11:53 PM 35.1 °F 25.2 °F 28.9 °F 78% 30.21 in 10.0 mi SW 16.1 mph - N/A   Overcast